Regional Weather Roundup
Issued by NWS

Home | Current Version | Previous Version | Graphics & Text | Print | Product List | Glossary On
Versions: 1 2 3 4 5 6 7 8 9 10 11 12 13 14 15 16 17 18 19 20 21 22 23 24 25 26 27 28 29 30 31 32 33 34 35 36 37 38 39 40 41 42 43 44 45 46 47 48 49 50
376
ASUS44 KJAN 262003
RWRMS

MISSISSIPPI HOURLY WEATHER ROUNDUP
NATIONAL WEATHER SERVICE JACKSON MS
200 PM CST MON JAN 26 2015

NOTE: "FAIR: INDICATES FEW OR NO CLOUDS BELOW 12,000 FEET WITH NO
SIGNIFICANT WEATHER AND/OR OBSTRUCTIONS TO VISIBILITY.

MSZ001>002-007>008-010>013-018>021-025>028-034>036-262100-
NORTHWEST MISSISSIPPI

CITY           SKY/WX    TMP DP  RH WIND       PRES   REMARKS
CLARKSDALE     FAIR      48  36  61 SW8       30.07F
CLEVELAND      FAIR      50  37  60 SW7       30.07F
GREENWOOD      MOSUNNY   48  34  58 VRB7G16   30.09F
GREENVILLE     SUNNY     51  34  52 NW8       30.08F
GRENADA        FAIR      46  32  57 NW8       30.08F
OLIVE BRANCH   MOSUNNY   43  32  65 W6        30.03F
OXFORD         FAIR      43  28  56 W9G18     30.07F
TUNICA         CLEAR     46  32  57 SW5       30.06F
$$

MSZ003>006-009-014>017-022>024-029>033-037>039-262100-
NORTHEAST MISSISSIPPI

CITY           SKY/WX    TMP DP  RH WIND       PRES   REMARKS
COLUMBUS AFB   MOSUNNY   49  30  47 NW16      30.04F
CORINTH        FAIR      46  30  53 W12G20    30.00F
GOLDN TRIANGLE SUNNY     50  34  53 W7        30.04F
STARKVILLE     FAIR      48  32  53 NW7       30.04F
TUPELO         SUNNY     49  30  48 N9G16     30.03F
$$

MSZ040-058-262100-
CENTRAL MISSISSIPPI

CITY           SKY/WX    TMP DP  RH WIND       PRES   REMARKS
JACKSON INTL   SUNNY     54  31  41 NW8       30.08F
JACKSON HAWKNS SUNNY     53  32  44 NW10      30.08F
MERIDIAN KEY   SUNNY     51  30  44 W9        30.06F
MERIDIAN NAS   SUNNY     51  31  46 W15       30.05F
RAYMOND        FAIR      54  50  87 NW10      30.08F
VICKSBURG      SUNNY     54  36  50 VRB6      30.11F
$$

MSZ059>079-262100-
SOUTH MISSISSIPPI

CITY           SKY/WX    TMP DP  RH WIND       PRES   REMARKS
BROOKHAVEN     FAIR      55  34  44 NW9       30.08F
HATTIESBURG    SUNNY     57  33  40 NW12      30.05F
MCCOMB         SUNNY     58  32  37 NW13      30.07F
NATCHEZ        SUNNY     54  36  50 W8        30.10F
PINE BELT      SUNNY     55  30  38 NW10G17   30.06F
$$

MSZ080>082-262100-
COASTAL MISSISSIPPI

CITY           SKY/WX    TMP DP  RH WIND       PRES   REMARKS
BAY ST LOUIS   SUNNY     61  28  29 N14       30.03F
BILOXI         SUNNY     61  35  37 N15       30.02F
PASCAGOULA     SUNNY     60  34  37 N13G21    30.01S
GULFPORT       SUNNY     61  34  36 N18G24    30.01F
$$



USA.gov is the U.S. government's official web portal to all federal, state and local government web resources and services.